sat.trackr.live / text

‹ back to catalog

STARLINK-6309

NORAD 56535 · 2023-065AJ

PAYLOAD ACTIVE UNKNOWN

§ Identity

Operator
Country
US
Launch date
2023-05-14
Launch site
AFETR
Launch vehicle
Mass (kg)
RCS (m²)

Purposes: comms

External: N2YO · Heavens-Above · Gunter

§ Orbital elements

Epoch: 2026-05-25T01:02:47.285376Z

Period
94.27 min
Inclination
43.0052°
Eccentricity
0.0000999
Mean motion
15.27577573 rev/d
Perigee alt
482.4 km
Apogee alt
483.7 km
Semi-major
6,861.2 km
B*
-3.5422e-5
RAAN
155.4350°
Arg perigee
253.0686°
Mean anomaly
107.0057°
Rev number
16,811

§ Raw data

STARLINK-63091 56535U 23065AJ  26145.04360284 -.00001237  00000+0 -35422-4 0  99992 56535  43.0052 155.4350 0000999 253.0686 107.0057 15.27577573168116

JSON: /api/v1/satellites/56535 · /tle

For live sub-satellite position, see the globe view (requires WebGL).

§ Visibility from observer

Set your observer location to see the next 7 days of passes ≥ 10°. The values pass through the URL so the page stays shareable.

No JS? Fill the form by hand. The geolocation button needs JavaScript.